KLM533 EHAM-EGLL

Flight info

Callsign KLM533
Flight time 0h 47m
Altitude 24000
Route EHAM/18L VALK5E IDRID L980 LOGAN LOGA2H EGLL/27R
Aircraft B736/M-V/N

Departure

Time 2026-05-04 00:04
Airport Amsterdam Airport Schiphol (EHAM)

Arrival

Time 2026-05-04 00:51
Airport London Heathrow Airport (EGLL)
Time Latitude Longitude Altitude Speed Heading
2026-05-04 00:00 52.31591 4.77705 -1 ft 0 kts 85°
2026-05-04 00:02 52.31592 4.77728 -1 ft 6 kts 85°
2026-05-04 00:02 52.31598 4.77851 -1 ft 14 kts 87°
2026-05-04 00:03 52.31587 4.77968 -1 ft 7 kts 141°
2026-05-04 00:03 52.31556 4.77974 -1 ft 1 kts 184°
2026-05-04 00:03 52.31548 4.77974 -1 ft 0 kts 184°
2026-05-04 00:03 52.31462 4.77961 -1 ft 41 kts 187°
2026-05-04 00:04 52.30879 4.77897 0 ft 122 kts 185°
2026-05-04 00:04 52.29893 4.77767 328 ft 156 kts 186°
2026-05-04 00:04 52.28695 4.77689 813 ft 188 kts 181°
2026-05-04 00:04 52.27332 4.77700 1609 ft 206 kts 180°
2026-05-04 00:05 52.25806 4.77922 2101 ft 240 kts 171°
2026-05-04 00:05 52.24063 4.78670 2537 ft 276 kts 166°
2026-05-04 00:05 52.22232 4.78923 4045 ft 264 kts 193°
2026-05-04 00:05 52.20768 4.77612 5690 ft 243 kts 228°
2026-05-04 00:06 52.20029 4.75190 6698 ft 251 kts 261°
2026-05-04 00:06 52.20197 4.72314 7636 ft 263 kts 280°
2026-05-04 00:06 52.20569 4.69418 8668 ft 267 kts 278°
2026-05-04 00:06 52.20905 4.66582 9666 ft 270 kts 279°
2026-05-04 00:07 52.21293 4.63585 10655 ft 275 kts 279°
2026-05-04 00:07 52.21701 4.60493 11474 ft 285 kts 280°
2026-05-04 00:07 52.22115 4.57312 12446 ft 289 kts 278°
2026-05-04 00:07 52.22102 4.54093 13426 ft 288 kts 256°
2026-05-04 00:08 52.21457 4.51031 14451 ft 288 kts 250°
2026-05-04 00:08 52.20790 4.47987 15419 ft 289 kts 252°
2026-05-04 00:08 52.20156 4.44914 16370 ft 289 kts 252°
2026-05-04 00:08 52.19511 4.41846 17300 ft 290 kts 252°
2026-05-04 00:09 52.18856 4.38751 18217 ft 291 kts 252°
2026-05-04 00:09 52.18204 4.35661 19108 ft 292 kts 252°
2026-05-04 00:09 52.17540 4.32524 19992 ft 293 kts 251°
2026-05-04 00:09 52.16882 4.29422 20845 ft 294 kts 252°
2026-05-04 00:10 52.16217 4.26289 21676 ft 295 kts 252°
2026-05-04 00:10 52.15551 4.23159 22479 ft 296 kts 252°
2026-05-04 00:10 52.14875 4.19984 23265 ft 298 kts 252°
2026-05-04 00:10 52.14201 4.16825 23908 ft 297 kts 252°
2026-05-04 00:11 52.13515 4.13612 23976 ft 304 kts 252°
2026-05-04 00:11 52.12820 4.10362 23935 ft 299 kts 252°
2026-05-04 00:11 52.12148 4.07231 23941 ft 297 kts 252°
2026-05-04 00:11 52.11465 4.04050 23940 ft 298 kts 252°
2026-05-04 00:12 52.10783 4.00877 23940 ft 298 kts 252°
2026-05-04 00:12 52.10098 3.97695 23939 ft 298 kts 252°
2026-05-04 00:12 52.09410 3.94503 23939 ft 298 kts 252°
2026-05-04 00:12 52.08727 3.91343 23940 ft 298 kts 252°
2026-05-04 00:13 52.08036 3.88145 23940 ft 298 kts 252°
2026-05-04 00:13 52.07344 3.84953 23938 ft 298 kts 252°
2026-05-04 00:13 52.06664 3.81820 23939 ft 298 kts 252°
2026-05-04 00:13 52.05970 3.78624 23940 ft 298 kts 252°
2026-05-04 00:14 52.05279 3.75450 23940 ft 298 kts 252°
2026-05-04 00:14 52.04587 3.72273 23939 ft 298 kts 252°
2026-05-04 00:14 52.03897 3.69114 23940 ft 298 kts 252°
2026-05-04 00:14 52.03207 3.65958 23940 ft 298 kts 252°
2026-05-04 00:15 52.02507 3.62762 23940 ft 298 kts 252°
2026-05-04 00:15 52.01812 3.59591 23939 ft 298 kts 252°
2026-05-04 00:15 52.01115 3.56419 23940 ft 298 kts 252°
2026-05-04 00:15 52.00421 3.53271 23940 ft 298 kts 251°
2026-05-04 00:16 51.99612 3.50180 23939 ft 300 kts 246°
2026-05-04 00:16 51.98517 3.47292 23941 ft 303 kts 239°
2026-05-04 00:16 51.97252 3.44528 23941 ft 303 kts 239°
2026-05-04 00:16 51.96037 3.41798 23939 ft 302 kts 239°
2026-05-04 00:17 51.94804 3.39013 23940 ft 303 kts 239°
2026-05-04 00:17 51.93562 3.36248 23941 ft 303 kts 239°
2026-05-04 00:17 51.92323 3.33501 23941 ft 303 kts 238°
2026-05-04 00:17 51.91083 3.30756 23940 ft 303 kts 238°
2026-05-04 00:18 51.89842 3.28016 23941 ft 303 kts 238°
2026-05-04 00:18 51.88587 3.25250 23941 ft 303 kts 238°
2026-05-04 00:18 51.87347 3.22521 23940 ft 303 kts 238°
2026-05-04 00:18 51.86133 3.19743 23941 ft 301 kts 242°
2026-05-04 00:19 51.85210 3.16729 23940 ft 298 kts 251°
2026-05-04 00:19 51.84720 3.13515 23941 ft 298 kts 261°
2026-05-04 00:19 51.84508 3.10197 23940 ft 298 kts 263°
2026-05-04 00:19 51.84292 3.06844 23940 ft 298 kts 262°
2026-05-04 00:20 51.84057 3.03537 23939 ft 298 kts 262°
2026-05-04 00:20 51.83833 3.00213 23940 ft 298 kts 262°
2026-05-04 00:20 51.83612 2.96893 23940 ft 298 kts 262°
2026-05-04 00:20 51.83391 2.93569 23939 ft 298 kts 261°
2026-05-04 00:21 51.83167 2.90206 23939 ft 298 kts 261°
2026-05-04 00:21 51.82946 2.86896 23940 ft 298 kts 261°
2026-05-04 00:21 51.82722 2.83539 23940 ft 298 kts 261°
2026-05-04 00:21 51.82500 2.80237 23939 ft 298 kts 261°
2026-05-04 00:22 51.82275 2.76898 23939 ft 298 kts 261°
2026-05-04 00:22 51.82052 2.73592 23940 ft 298 kts 261°
2026-05-04 00:22 51.81826 2.70255 23940 ft 298 kts 261°
2026-05-04 00:22 51.81600 2.66933 23938 ft 298 kts 261°
2026-05-04 00:23 51.81372 2.63609 23939 ft 298 kts 261°
2026-05-04 00:23 51.81141 2.60250 23940 ft 298 kts 261°
2026-05-04 00:23 51.80912 2.56945 23939 ft 298 kts 261°
2026-05-04 00:23 51.80680 2.53603 23938 ft 298 kts 261°
2026-05-04 00:24 51.80448 2.50280 23940 ft 297 kts 261°
2026-05-04 00:24 51.80215 2.46959 23940 ft 297 kts 261°
2026-05-04 00:24 51.79985 2.43688 23939 ft 297 kts 261°
2026-05-04 00:24 51.79749 2.40339 23939 ft 297 kts 261°
2026-05-04 00:25 51.79513 2.37023 23940 ft 297 kts 261°
2026-05-04 00:25 51.79278 2.33726 23941 ft 297 kts 261°
2026-05-04 00:25 51.79040 2.30394 23939 ft 297 kts 261°
2026-05-04 00:25 51.78804 2.27096 23939 ft 297 kts 261°
2026-05-04 00:26 51.78565 2.23780 23940 ft 297 kts 260°
2026-05-04 00:26 51.78342 2.20468 23940 ft 297 kts 261°
2026-05-04 00:26 51.78156 2.17154 23939 ft 297 kts 262°
2026-05-04 00:26 51.77969 2.13868 23939 ft 297 kts 261°
2026-05-04 00:27 51.77770 2.10512 23941 ft 297 kts 261°
2026-05-04 00:27 51.77573 2.07184 23940 ft 297 kts 262°
2026-05-04 00:27 51.77378 2.03891 23939 ft 297 kts 261°
2026-05-04 00:27 51.77181 2.00576 23940 ft 297 kts 261°
2026-05-04 00:28 51.76980 1.97226 23940 ft 297 kts 261°
2026-05-04 00:28 51.76783 1.93949 23939 ft 297 kts 261°
2026-05-04 00:28 51.76583 1.90641 23939 ft 297 kts 261°
2026-05-04 00:28 51.76379 1.87280 23942 ft 297 kts 261°
2026-05-04 00:29 51.76178 1.84003 23944 ft 297 kts 261°
2026-05-04 00:29 51.75973 1.80651 23945 ft 297 kts 261°
2026-05-04 00:29 51.75770 1.77366 23947 ft 297 kts 261°
2026-05-04 00:29 51.75564 1.74030 23950 ft 297 kts 261°
2026-05-04 00:30 51.75359 1.70746 23952 ft 297 kts 261°
2026-05-04 00:30 51.75151 1.67408 23953 ft 297 kts 261°
2026-05-04 00:30 51.74942 1.64077 23953 ft 297 kts 261°
2026-05-04 00:30 51.74733 1.60766 23955 ft 297 kts 261°
2026-05-04 00:31 51.74524 1.57474 23913 ft 296 kts 261°
2026-05-04 00:31 51.74319 1.54232 23649 ft 290 kts 261°
2026-05-04 00:31 51.74107 1.50944 23258 ft 299 kts 261°
2026-05-04 00:31 51.73895 1.47649 22834 ft 297 kts 262°
2026-05-04 00:32 51.73682 1.44322 22405 ft 293 kts 261°
2026-05-04 00:32 51.73473 1.41092 21988 ft 289 kts 261°
2026-05-04 00:32 51.73259 1.37827 21568 ft 297 kts 262°
2026-05-04 00:32 51.73044 1.34549 21139 ft 295 kts 261°
2026-05-04 00:33 51.72830 1.31269 20714 ft 291 kts 261°
2026-05-04 00:33 51.72403 1.24816 19877 ft 293 kts 261°
2026-05-04 00:33 51.72184 1.21530 19444 ft 294 kts 261°
2026-05-04 00:34 51.71970 1.18310 19023 ft 291 kts 261°
2026-05-04 00:34 51.71754 1.15092 18603 ft 288 kts 261°
2026-05-04 00:34 51.71538 1.11892 18184 ft 285 kts 261°
2026-05-04 00:34 51.71325 1.08736 17774 ft 285 kts 261°
2026-05-04 00:35 51.71107 1.05540 17353 ft 289 kts 262°
2026-05-04 00:35 51.70891 1.02361 16936 ft 286 kts 262°
2026-05-04 00:35 51.70674 0.99185 16519 ft 283 kts 262°
2026-05-04 00:35 51.70456 0.96022 16103 ft 281 kts 262°
2026-05-04 00:36 51.70243 0.92928 15804 ft 277 kts 262°
2026-05-04 00:36 51.70025 0.89789 15418 ft 285 kts 262°
2026-05-04 00:36 51.69804 0.86613 15002 ft 283 kts 262°
2026-05-04 00:36 51.69586 0.83485 14590 ft 281 kts 262°
2026-05-04 00:37 51.69369 0.80395 14182 ft 279 kts 262°
2026-05-04 00:37 51.69150 0.77278 13771 ft 280 kts 262°
2026-05-04 00:37 51.68929 0.74159 13356 ft 284 kts 262°
2026-05-04 00:37 51.68704 0.70977 12933 ft 282 kts 262°
2026-05-04 00:38 51.68485 0.67894 12524 ft 280 kts 262°
2026-05-04 00:38 51.68272 0.64912 12128 ft 278 kts 263°
2026-05-04 00:38 51.68050 0.61818 11716 ft 276 kts 263°
2026-05-04 00:38 51.67830 0.58766 11311 ft 277 kts 263°
2026-05-04 00:39 51.67606 0.55668 10897 ft 281 kts 263°
2026-05-04 00:39 51.67378 0.52529 10501 ft 278 kts 263°
2026-05-04 00:39 51.67157 0.49489 10265 ft 270 kts 264°
2026-05-04 00:39 51.66943 0.46557 10059 ft 262 kts 263°
2026-05-04 00:40 51.66734 0.43707 9912 ft 252 kts 263°
2026-05-04 00:40 51.66527 0.40893 9555 ft 250 kts 264°
2026-05-04 00:40 51.66321 0.38114 9227 ft 248 kts 264°
2026-05-04 00:40 51.66120 0.35389 8909 ft 246 kts 264°
2026-05-04 00:41 51.66012 0.33938 8740 ft 245 kts 264°
2026-05-04 00:41 51.65567 0.27958 8047 ft 244 kts 264°
2026-05-04 00:41 51.65363 0.25220 7724 ft 246 kts 264°
2026-05-04 00:42 51.65158 0.22500 7407 ft 244 kts 264°
2026-05-04 00:42 51.65020 0.20683 7224 ft 242 kts 263°
2026-05-04 00:42 51.64758 0.17215 7074 ft 228 kts 263°
2026-05-04 00:42 51.64361 0.14820 6910 ft 222 kts 244°
2026-05-04 00:43 51.63398 0.12831 6517 ft 227 kts 230°
2026-05-04 00:43 51.62365 0.10906 6250 ft 224 kts 232°
2026-05-04 00:43 51.61380 0.09020 5996 ft 221 kts 231°
2026-05-04 00:43 51.60392 0.07140 5736 ft 218 kts 231°
2026-05-04 00:44 51.59417 0.05285 5479 ft 216 kts 231°
2026-05-04 00:44 51.58437 0.03420 5224 ft 220 kts 231°
2026-05-04 00:44 51.57443 0.01532 4958 ft 219 kts 230°
2026-05-04 00:44 51.56472 -0.00311 4702 ft 217 kts 230°
2026-05-04 00:45 51.55494 -0.02167 4446 ft 214 kts 230°
2026-05-04 00:45 51.54529 -0.03998 4254 ft 215 kts 230°
2026-05-04 00:45 51.53592 -0.05773 4129 ft 207 kts 231°
2026-05-04 00:45 51.52669 -0.07521 4005 ft 198 kts 231°
2026-05-04 00:46 51.51796 -0.09172 3853 ft 191 kts 231°
2026-05-04 00:46 51.50950 -0.10773 3679 ft 192 kts 231°
2026-05-04 00:46 51.50075 -0.12426 3477 ft 192 kts 231°
2026-05-04 00:46 51.49235 -0.14014 3293 ft 186 kts 231°
2026-05-04 00:47 51.48409 -0.15571 3120 ft 177 kts 231°
2026-05-04 00:47 51.47802 -0.17185 2982 ft 165 kts 258°
2026-05-04 00:47 51.47920 -0.18939 2996 ft 157 kts 282°
2026-05-04 00:47 51.47969 -0.20642 2838 ft 151 kts 261°
2026-05-04 00:48 51.47862 -0.22307 2705 ft 152 kts 264°
2026-05-04 00:48 51.47813 -0.24001 2480 ft 150 kts 268°
2026-05-04 00:48 51.47800 -0.25668 2280 ft 151 kts 269°
2026-05-04 00:48 51.47794 -0.27377 2070 ft 151 kts 269°
2026-05-04 00:49 51.47791 -0.29050 1864 ft 151 kts 269°
2026-05-04 00:49 51.47789 -0.30746 1658 ft 151 kts 269°
2026-05-04 00:49 51.47786 -0.32429 1472 ft 150 kts 269°
2026-05-04 00:49 51.47783 -0.34098 1244 ft 150 kts 269°
2026-05-04 00:50 51.47780 -0.35773 1056 ft 150 kts 269°
2026-05-04 00:50 51.47777 -0.37445 852 ft 149 kts 270°
2026-05-04 00:50 51.47774 -0.39087 769 ft 144 kts 270°
2026-05-04 00:50 51.47801 -0.40793 597 ft 164 kts 271°
2026-05-04 00:51 51.47790 -0.42666 231 ft 165 kts 267°
2026-05-04 00:51 51.47762 -0.44331 152 ft 133 kts 269°
2026-05-04 00:51 51.47757 -0.45661 84 ft 106 kts 271°
2026-05-04 00:51 51.47751 -0.46564 83 ft 40 kts 267°
2026-05-04 00:52 51.47676 -0.46798 81 ft 21 kts 243°
2026-05-04 00:52 51.47616 -0.46886 82 ft 1 kts 203°
2026-05-04 00:52 51.47612 -0.46888 82 ft 0 kts 203°
2026-05-04 00:52 51.47611 -0.46889 82 ft 0 kts 203°
2026-05-04 00:53 51.47610 -0.46890 82 ft 0 kts 203°
2026-05-04 00:53 51.47603 -0.46894 82 ft 2 kts 203°
2026-05-04 00:53 51.47570 -0.46916 82 ft 7 kts 203°
2026-05-04 00:53 51.47528 -0.46926 82 ft 8 kts 178°
2026-05-04 00:54 51.47451 -0.46897 80 ft 13 kts 167°
2026-05-04 00:54 51.47358 -0.46868 78 ft 13 kts 178°
2026-05-04 00:54 51.47270 -0.46863 78 ft 11 kts 163°
2026-05-04 00:54 51.47239 -0.46766 78 ft 9 kts 89°
2026-05-04 00:55 51.47240 -0.46670 78 ft 7 kts 89°
2026-05-04 00:55 51.47240 -0.46594 78 ft 6 kts 89°
2026-05-04 00:55 51.47240 -0.46531 78 ft 5 kts 92°
2026-05-04 00:55 51.47239 -0.46484 78 ft 2 kts 92°
2026-05-04 00:56 51.47239 -0.46458 78 ft 2 kts 94°
2026-05-04 00:56 51.47232 -0.46424 79 ft 5 kts 123°
2026-05-04 00:56 51.47201 -0.46383 80 ft 4 kts 144°
2026-05-04 00:56 51.47182 -0.46360 80 ft 2 kts 144°
2026-05-04 00:57 51.47150 -0.46322 81 ft 8 kts 144°
2026-05-04 00:57 51.47133 -0.46260 82 ft 3 kts 56°
2026-05-04 00:57 51.47158 -0.46205 84 ft 3 kts 56°
2026-05-04 00:57 51.47165 -0.46190 84 ft 1 kts 56°
2026-05-04 00:58 51.47166 -0.46185 84 ft 0 kts 56°
2026-05-04 00:58 51.47167 -0.46184 84 ft 0 kts 58°
2026-05-04 00:58 51.47168 -0.46180 84 ft 0 kts 58°
2026-05-04 00:58 51.47170 -0.46176 84 ft 0 kts 58°
2026-05-04 00:59 51.47171 -0.46175 84 ft 0 kts 58°